[[{"header":{"parameterUnit":"m.s-1","parameterCategory":1,"la1":30.2992,"la2":30.254,"lo1":-89.0895,"lo2":-89.0443,"dy":0.0025,"dx":0.0025,"nx":19,"ny":19,"refTime":"2026-03-25T21:00:00:Z","depth":0,"parameterNumber":2,"parameterNumberName":"U-component_of_WINDS"},"data":[0,0,0,-2.654,-2.6543,-2.6681,-2.6682,-2.686,-2.6862,0,0,0,0,0,0,0,0,0,0,0,-2.6499,-2.65,-2.654,-2.6543,-2.6681,-2.6682,-2.686,-2.6862,0,0,0,0,0,0,0,0,0,0,0,-2.6498,-2.6499,-2.6501,-2.6544,-2.6681,-2.6682,-2.6859,-2.6755,0,0,0,0,0,0,0,0,0,0,-2.662,-2.6582,-2.6499,-2.6501,-2.6544,-2.6681,-2.6682,-2.675,-2.6761,-2.6798,0,-2.6829,0,-2.6848,-2.6874,-2.6874,0,0,0,-2.6544,-2.6572,-2.6609,-2.6501,-2.6546,-2.6681,-2.6619,-2.6756,-2.6769,-2.6813,-2.6831,-2.6838,-2.6851,-2.6875,-2.6876,-2.7081,-2.7082,0,0,-2.6536,-2.6523,-2.66,-2.6618,-2.6595,-2.6614,-2.6623,-2.6764,-2.6784,-2.6832,-2.6842,-2.6854,-2.6876,-2.6877,-2.708,-2.7081,0,0,0,-2.6514,-2.6518,-2.6552,-2.6611,-2.6635,-2.6618,-2.6628,-2.6777,-2.679,-2.6844,-2.6856,-2.6877,-2.6879,-2.7079,-2.708,-2.7113,0,0,0,-2.6509,-2.6505,-2.6549,-2.6543,-2.6633,-2.6708,-2.6639,-2.678,-2.6796,-2.6855,-2.6877,-2.6881,-2.7078,-2.708,-2.711,-2.713,0,0,0,-2.649,-2.6503,-2.6523,-2.6542,-2.66,-2.6706,-2.6726,-2.6784,-2.6803,-2.6874,-2.6881,-2.7077,-2.7079,-2.7107,-2.7125,-2.7179,0,0,0,-2.6466,-2.655,-2.6523,-2.6623,-2.6599,-2.6725,-2.6725,-2.682,-2.6885,-2.6878,-2.7078,-2.708,-2.7106,-2.7123,-2.7176,-2.7222,-2.7239,0,0,-2.6565,-2.6562,-2.6622,-2.6601,-2.6728,-2.6705,-2.6838,-2.6909,-2.6929,-2.7029,-2.7035,-2.7111,-2.7125,-2.7179,-2.7347,-2.7361,0,0,0,-2.6649,-2.6691,-2.6728,-2.6788,-2.6845,-2.6895,-2.6948,-2.6975,-2.7061,-2.6977,-2.7146,-2.7155,-2.7187,-2.7209,-2.7221,-2.7249,-2.709,-2.709,-2.709,-2.6771,-2.6791,-2.6891,-2.6927,-2.6986,-2.704,-2.709,-2.7135,-2.7138,-2.7178,-2.7207,-2.7306,-2.7332,-2.7341,-2.737,-2.7234,-2.7234,-2.7234,-2.7234,-2.6919,-2.6981,-2.6983,-2.708,-2.7101,-2.7184,-2.724,-2.7239,-2.732,-2.7286,-2.7315,-2.7275,-2.7356,-2.7382,-2.7237,-2.7236,-2.7236,-2.7236,-2.7236,-2.7,-2.7033,-2.7064,-2.7154,-2.7221,-2.7256,-2.7333,-2.735,-2.7366,-2.7395,-2.7428,-2.7427,-2.7428,-2.741,-2.741,-2.7411,-2.7411,-2.7411,-2.7411,-2.7071,-2.7105,-2.7167,-2.7234,-2.7276,-2.7332,-2.7389,-2.743,-2.7481,-2.7487,-2.7487,-2.7486,-2.736,-2.7327,-2.7417,-2.7416,-2.7415,-2.7415,-2.7414,-2.721,-2.7182,-2.7277,-2.7318,-2.74,-2.7466,-2.7486,-2.757,-2.7607,-2.7645,-2.7638,-2.7543,-2.7541,-2.7531,-2.7504,-2.7634,-2.7634,-2.7634,-2.7634,-2.7278,-2.7278,-2.738,-2.7445,-2.7511,-2.7539,-2.7648,-2.7694,-2.7736,-2.7761,-2.7745,-2.7711,-2.7701,-2.7705,-2.7691,-2.7666,-2.7834,-2.7835,-2.7835,-2.7364,-2.7372,-2.746,-2.75,-2.7565,-2.7621,-2.7724,-2.78,-2.7843,-2.7843,-2.778,-2.7772,-2.7717,-2.7699,-2.7695,-2.7675,-2.7629,0,0]},{"header":{"parameterUnit":"m.s-1","parameterCategory":1,"la1":30.2992,"la2":30.254,"lo1":-89.0895,"lo2":-89.0443,"dy":0.0025,"dx":0.0025,"nx":19,"ny":19,"refTime":"2026-03-25T21:00:00:Z","depth":0,"parameterNumber":3,"parameterNumberName":"V-component_of_WINDS"},"data":[0,0,0,2.0835,2.0836,2.0879,2.0879,2.0931,2.0932,0,0,0,0,0,0,0,0,0,0,0,2.0822,2.0823,2.0835,2.0836,2.0879,2.0879,2.0931,2.0932,0,0,0,0,0,0,0,0,0,0,0,2.0822,2.0823,2.0823,2.0837,2.0879,2.0879,2.0931,2.09,0,0,0,0,0,0,0,0,0,0,2.0859,2.0846,2.0823,2.0823,2.0837,2.0879,2.0879,2.0898,2.0902,2.0912,0,2.0921,0,2.0927,2.0935,2.0935,0,0,0,2.0836,2.0843,2.0855,2.0823,2.0837,2.0879,2.086,2.09,2.0904,2.0916,2.0922,2.0924,2.0928,2.0936,2.0936,2.0996,2.0996,0,0,2.0834,2.0829,2.0853,2.0858,2.0852,2.0858,2.0861,2.0902,2.0908,2.0922,2.0925,2.0929,2.0936,2.0936,2.0996,2.0996,0,0,0,2.0827,2.0828,2.0839,2.0856,2.0864,2.0859,2.0863,2.0906,2.091,2.0926,2.093,2.0936,2.0937,2.0996,2.0996,2.1006,0,0,0,2.0826,2.0824,2.0838,2.0835,2.0863,2.0885,2.0865,2.0907,2.0912,2.0929,2.0936,2.0937,2.0995,2.0996,2.1005,2.1011,0,0,0,2.082,2.0823,2.0829,2.0835,2.0853,2.0885,2.0891,2.0908,2.0915,2.0935,2.0937,2.0995,2.0996,2.1004,2.101,2.1026,0,0,0,2.0811,2.0837,2.0829,2.0859,2.0853,2.0891,2.0891,2.092,2.0939,2.0936,2.0995,2.0996,2.1004,2.1009,2.1025,2.1039,2.1045,0,0,2.0841,2.084,2.0858,2.0853,2.0891,2.0885,2.0925,2.0946,2.0952,2.0981,2.0982,2.1005,2.101,2.1026,2.1077,2.1081,0,0,0,2.0866,2.0878,2.089,2.0908,2.0926,2.0942,2.0958,2.0966,2.0991,2.0966,2.1016,2.1019,2.1028,2.1035,2.1039,2.1047,2.0999,2.0999,2.0999,2.0899,2.0907,2.0937,2.0949,2.0968,2.0985,2.1,2.1013,2.1014,2.1026,2.1034,2.1064,2.1072,2.1075,2.1084,2.1042,2.1042,2.1043,2.1043,2.0943,2.0962,2.0964,2.0994,2.1002,2.1027,2.1044,2.1044,2.1069,2.1058,2.1067,2.1055,2.1079,2.1088,2.1043,2.1043,2.1043,2.1043,2.1043,2.0966,2.0976,2.0987,2.1015,2.1037,2.1048,2.1072,2.1077,2.1083,2.1091,2.1101,2.1101,2.1102,2.1096,2.1096,2.1096,2.1096,2.1096,2.1096,2.0985,2.0997,2.1016,2.1039,2.1052,2.107,2.1088,2.1101,2.1117,2.1119,2.1119,2.1119,2.1081,2.1071,2.1098,2.1098,2.1097,2.1097,2.1097,2.1026,2.1018,2.1049,2.1062,2.1089,2.111,2.1118,2.1144,2.1156,2.1167,2.1166,2.1136,2.1136,2.1133,2.1125,2.1164,2.1164,2.1164,2.1164,2.1045,2.1046,2.1079,2.1101,2.1122,2.1133,2.1167,2.1181,2.1195,2.1203,2.1198,2.1188,2.1185,2.1186,2.1182,2.1174,2.1225,2.1225,2.1225,2.1071,2.1075,2.1103,2.1117,2.1139,2.1157,2.119,2.1214,2.1228,2.1228,2.1209,2.1206,2.119,2.1184,2.1183,2.1177,2.1163,0,0]}]]